Main page


Airports :

Tehran, Iran

Mehrabad International Airport

latitude: 35-41N, longitude: 051-21E, elevation: 1204 m

Current weather observation

The report was made 21 minutes ago, at 23:00 UTC
Calm wind
Temperature 16°C
Humidity 13%
Pressure 1016 hPa
Visibility 10 km or more
Scattered clouds at a height of 10000 ft
Broken clouds at a height of 20000 ft

METAR: OIII 222300Z 00000KT 9999 SCT100 BKN200 16/M12 Q1015 A3000

Time: 03:51 (23:21 UTC)


The report was made 6 hours and 6 minutes ago, at 17:15 UTC
Forecast valid from 22 at 18 UTC to 23 at 24 UTC
Wind 8 kt from the Northwest
Visibility 10 km or more
no clouds below 1500 m and no cumulonimbus
from 23 at 10 UTC to 23 at 16 UTC
Wind 17 kt from the North/Northwest

TAF: OIII 221715Z 2218/2324 32004MPS CAVOK TEMPO 2310/2316 33009MPS

Weather observations and forecasts of more than 4000 airports (METAR and TAF reports).

The available stations are represented by yellow and red dots on the map.

Hover mouse over dot to see the name of the station.

Then click to see weather observations and forecasts.

To change the map : click on the green buttons with a black cross to zoom in, on the green button with a dash to zoom out, or on the green arrows for adjacent maps.